Flag for Germany Weather past 2 weeks in Emsdetten, North Rhine-Westphalia, Germany

Now
54 °F

Light rain. Partly cloudy.


Feels Like: 53 °F
Forecast: 50 / 60 °F
Wind: 3 mph from Southeast

Location: Muenster / Osnabrueck

Current Time: Apr 25, 2015 at 7:15:42 AM

Latest Report: Apr 25, 2015 at 6:20 AM


Visibility: 5 mi

Pressure: 29.74 "Hg

Humidity: 77%

Dew point: 46 °F

Location of EmsdettenLocation

Historic Weather in Emsdetten — Graph

°F

Emsdetten temperature yesterday

Maximum temperature yesterday: 68 °F (at 3:50 PM)
Minimum temperature yesterday: 34 °F (at 5:20 AM)
Average temperature yesterday: 53 °F

Past Weeks' High & Low Weather Summary

 TemperatureHumidityPressure
High73 °F (Apr 15, 2:50 PM)100% (Apr 10, 6:20 AM)30.45 "Hg (Apr 10, 6:20 AM)
Low32 °F (Apr 18, 5:50 AM)28% (Apr 21, 3:20 PM)29.74 "Hg (Apr 25, 4:20 AM)
Average51 °F67%30.18 "Hg
* Reported Apr 10 6:20 AM — Apr 25 6:20 AM, Emsdetten, Weather by CustomWeather, © 2015

Note: Actual official high and low records may vary slightly from our data, if they occured in-between our weather recording intervals... More about our weather records

Advertising

Emsdetten weather history for previous 24 hours

 ConditionsComfort  
Time TempWeatherWind HumidityBarometerVisibility
6:20 AM
Sat, Apr 25
54 °FLight rain. Partly cloudy.3 mph77%29.74 "Hg5 mi
5:20 AM55 °FClear.5 mph67%29.74 "Hg10 mi
4:50 AM54 °FClear.3 mph72%29.74 "Hg10 mi
4:20 AM54 °FClear.5 mph72%29.74 "Hg10 mi
3:50 AM54 °FClear.8 mph72%29.77 "Hg10 mi
3:20 AM55 °FClear.6 mph67%29.77 "Hg10 mi
2:50 AM50 °FClear.3 mph71%29.77 "Hg10 mi
2:20 AM52 °FClear.3 mph67%29.77 "Hg10 mi
1:50 AM52 °FClear.3 mph67%29.77 "Hg10 mi
1:20 AM52 °FClear.3 mph67%29.77 "Hg10 mi
12:50 AM50 °FClear.3 mph71%29.77 "Hg10 mi
12:20 AM50 °FClear.3 mph76%29.77 "Hg10 mi
11:20 PM
Fri, Apr 24
54 °FClear.3 mph67%29.80 "Hg10 mi
10:50 PM55 °FClear.2 mph67%29.80 "Hg10 mi
10:20 PM57 °FClear.3 mph59%29.80 "Hg10 mi
9:50 PM57 °FClear.2 mph59%29.80 "Hg10 mi
9:20 PM57 °FSunny.2 mph55%29.80 "Hg10 mi
8:50 PM61 °FSunny.3 mph48%29.80 "Hg10 mi
8:20 PM63 °FSunny.3 mph45%29.80 "Hg10 mi
7:50 PM64 °FSunny.3 mph40%29.80 "Hg10 mi
7:20 PM66 °FSunny.5 mph35%29.80 "Hg10 mi
6:50 PM66 °FSunny.10 mph35%29.83 "Hg10 mi
6:20 PM68 °FSunny.12 mph33%29.83 "Hg10 mi
5:50 PM68 °FSunny.7 mph33%29.83 "Hg10 mi
5:20 PM68 °FSunny.12 mph33%29.83 "Hg10 mi
4:50 PM68 °FSunny.13 mph33%29.83 "Hg10 mi
4:20 PM68 °FSunny.12 mph33%29.83 "Hg10 mi
3:50 PM68 °FPassing clouds.9 mph35%29.86 "HgN/A
3:20 PM66 °FSunny.13 mph35%29.86 "Hg10 mi
2:50 PM66 °FSunny.10 mph40%29.86 "Hg10 mi
2:20 PM66 °FSunny.12 mph40%29.89 "Hg10 mi
1:50 PM66 °FClear.10 mph37%29.89 "Hg6 mi
1:20 PM64 °FClear.9 mph46%29.89 "Hg5 mi
12:50 PM63 °FClear.9 mph52%29.89 "Hg4 mi
12:20 PM64 °FClear.9 mph49%29.89 "Hg4 mi
11:50 AM61 °FClear.8 mph55%29.92 "Hg4 mi
11:20 AM61 °FClear.5 mph59%29.92 "Hg4 mi
10:50 AM57 °FClear.2 mph63%29.92 "Hg4 mi
10:20 AM55 °FClear.3 mph67%29.92 "Hg4 mi
9:50 AM52 °FClear.5 mph77%29.92 "Hg3 mi
9:20 AM48 °FFog.5 mph82%29.95 "Hg3 mi
8:50 AM46 °FFog.5 mph87%29.95 "Hg3 mi
8:20 AM43 °FFog.2 mph100%29.95 "Hg2 mi
7:50 AM41 °FFog.2 mph100%29.95 "Hg2 mi
7:20 AM37 °FFog.1 mph100%29.95 "Hg2 mi
Weather by CustomWeather, © 2015

See weather overviewHow to use our weather pages